Location: Balaclava NSW 2575, Australia
(34.4510°S, 150.4953°E)
Time: 21:10:06
(UTC+10:00)

Hubble Space Telescope - Pass Details

Date: 17 May 2021
Orbit: 535 x 539 km, 28.5° (Epoch: 19 June)

Event Time Altitude Azimuth Distance (km) Brightness Sun altitude
Rises 19:44:56 0° 289° (WNW) 2,688 5.3 -33.3°
Reaches altitude 10° 19:47:19 10° 297° (WNW) 1,798 4.1 -33.8°
Enters shadow 19:48:00 14° 302° (WNW) 1,559 3.7 -33.9°
